Temperature
16 15 14 14 13 13 13 12 12 12 12 12 12 13 13 13 13 13 14 14 13 13 13 13 13 13 13 13 13 14 14 14 13 13 13 13 13 13 13 14 14 14 14
16 15 14 14 13 13 12 12 12 12 12 12 12 12 12 13 13 13 13 13 13 13 13 12 12 12 13 13 13 13 13 13 13 13 13 13 13 13 13 13 13 13 14
16 15 14 14 13 13 12 12 12 12 11 11 12 12 12 12 13 13 13 13 13 12 12 12 12 12 13 13 13 13 13 13 13 13 13 13 13 13 13 13 13 13 13
16 15 14 14 13 13 13 12 12 12 12 11 11 12 12 12 12 12 12 12 12 12 12 12 12 12 12 13 13 13 13 13 13 13 13 12 12 12 12 12 12 12 12
16 15 14 14 13 13 13 12 12 12 11 11 11 11 11 11 11 11 11 11 11 11 12 12 12 12 12 12 12 12 13 12 12 12 12 12 12 12 12 12 12 12 12
16 15 14 14 13 13 13 12 12 11 11 11 11 11 11 11 11 11 11 11 11 11 11 11 12 12 12 12 12 12 12 12 12 12 12 11 11 11 11 11 11 11 11
17 15 15 14 13 13 13 12 12 11 11 11 11 11 11 11 11 11 11 11 11 11 11 11 11 11 11 11 11 12 12 12 12 11 11 11 11 11 11 11 11 11 10
16 16 15 14 13 13 12 12 12 11 11 11 11 11 11 11 11 11 11 11 11 11 11 11 11 11 11 11 11 11 11 11 11 11 11 11 10 10 10 10 10 10 10
15 15 15 14 14 13 12 12 12 11 11 11 11 11 11 11 11 11 11 11 11 11 11 11 11 11 11 11 11 11 11 11 11 11 11 10 10 10 10 10 10 10 10
13 14 14 14 14 13 13 12 12 11 11 11 11 11 11 11 11 11 11 11 11 11 11 11 11 11 11 11 11 11 11 11 11 11 10 10 10 10 10 10 10 9 9
11 12 12 13 13 13 13 12 12 11 11 11 11 11 11 11 11 11 11 11 11 11 11 11 10 10 10 10 10 10 10 10 10 10 10 9 9 9 9 9 9 9 9
10 10 11 12 13 13 13 12 12 12 11 11 11 11 11 11 11 11 11 11 11 11 11 10 10 10 10 10 10 9 9 9 9 9 9 9 9 9 9 9 9 8 8
9 9 10 11 12 12 12 12 12 12 11 11 11 11 11 11 11 11 11 11 11 11 10 10 10 10 9 9 9 9 9 9 8 8 8 8 8 8 8 8 8 8 8
8 8 9 10 11 11 12 12 12 12 11 11 11 11 11 11 11 11 11 11 11 10 10 10 10 9 9 9 9 9 8 8 8 8 7 8 8 8 8 8 8 8 8
7 8 8 9 10 11 12 12 12 12 12 12 12 12 11 11 11 11 11 11 11 10 10 10 10 9 9 9 9 9 8 8 8 7 7 7 7 7 7 7 7 7 7
7 8 8 8 9 10 11 12 12 12 12 12 12 12 12 12 12 11 11 11 11 10 10 10 10 10 9 9 9 9 8 8 8 7 7 7 7 7 7 7 7 7 7
7 7 7 8 9 10 11 11 12 11 11 11 11 11 11 11 11 11 11 11 10 10 10 10 10 10 10 10 9 9 9 8 8 8 7 7 7 7 7 7 7 7 6
7 7 7 8 8 9 10 11 12 12 11 10 10 10 11 11 11 11 10 10 10 10 10 10 10 10 10 10 10 9 9 9 8 8 7 7 7 7 7 7 6 6 6
7 7 7 7 8 9 10 11 12 12 11 11 10 10 10 10 10 10 10 10 10 10 10 10 10 10 10 10 10 10 9 9 8 8 7 7 7 7 6 6 6 6 6
7 7 7 7 8 8 10 11 11 11 11 11 10 10 10 10 10 10 10 10 10 10 10 10 10 10 10 10 10 10 9 9 9 8 8 7 7 7 7 6 6 6 6
7 7 7 7 7 8 9 10 11 11 11 11 11 11 11 10 10 10 10 10 10 10 10 10 10 10 10 10 10 10 9 9 9 8 8 8 7 7 7 6 6 6 6
7 7 7 7 7 8 9 10 11 11 11 11 11 11 11 11 11 10 10 10 10 10 10 10 10 10 10 10 10 10 10 9 9 9 8 8 8 7 7 7 6 6 5
6 7 7 7 7 8 9 10 10 11 12 12 11 11 10 10 10 10 10 10 10 10 10 10 10 10 10 10 10 10 10 10 9 9 9 8 8 8 7 7 6 6 5
6 7 7 7 8 9 10 10 11 11 11 11 11 11 11 10 10 10 10 10 10 10 10 10 10 10 10 10 10 10 10 10 10 9 9 9 9 8 8 7 6 6 5
6 7 7 7 8 9 10 10 11 11 11 11 11 11 11 10 10 10 10 10 10 10 10 10 10 10 10 10 10 10 10 10 10 10 10 9 9 8 8 7 7 6 5
7 7 7 8 8 9 10 11 11 11 11 11 11 11 11 11 10 10 10 10 10 10 11 11 11 11 11 11 10 10 10 10 10 10 10 10 9 9 8 8 7 6 6
Wind_Speed
6 5 4 2 1 2 4 5 6 5 5 6 6 5 5 4 2 1 1 2 4 3 3 5 5 4 3 2 2 2 3 3 4 3 4 5 7 6 6 6 8 8 8
7 6 6 4 3 2 3 4 5 5 6 6 6 6 6 5 3 2 3 4 6 7 7 7 6 5 5 4 4 5 4 4 6 6 5 6 6 5 5 5 5 7 7
8 8 7 6 5 4 4 4 4 5 6 6 6 6 5 4 4 4 6 9 9 9 8 8 7 8 7 6 7 6 6 7 6 6 4 4 4 3 4 4 5 5 7
8 8 8 8 8 7 5 4 4 4 4 5 5 5 5 5 6 7 10 10 10 9 8 7 7 8 8 8 8 8 9 9 7 6 5 4 3 3 4 4 4 4 5
9 9 9 9 8 7 6 5 3 3 3 2 3 5 5 4 5 9 9 10 11 11 10 9 9 11 11 9 8 8 8 7 6 6 4 4 5 4 4 4 4 4 3
10 10 9 8 8 8 7 6 4 3 2 1 3 5 5 4 7 11 10 9 10 11 10 9 9 10 12 14 15 12 9 7 6 4 3 4 3 3 4 4 4 4 4
10 9 9 9 9 8 8 7 6 4 3 3 4 5 5 5 10 14 13 9 9 8 9 8 9 9 10 9 11 12 12 11 7 5 4 2 2 2 3 5 4 2 2
9 9 10 10 10 9 8 8 7 5 5 4 5 5 5 6 13 16 16 11 9 8 8 9 9 8 8 9 9 9 9 8 6 3 3 2 1 0 1 1 1 2 3
8 9 11 12 11 10 10 9 7 6 5 5 6 7 7 7 12 15 14 9 9 8 7 7 9 9 12 13 11 10 10 8 9 12 9 8 9 8 5 5 5 5 4
12 9 10 12 13 12 11 9 7 6 6 7 7 7 8 7 12 16 14 9 8 7 6 7 10 11 12 13 10 10 10 7 8 10 10 10 8 8 10 6 3 3 2
14 11 9 11 13 12 11 8 8 8 8 8 8 7 7 8 11 15 15 8 9 8 6 4 4 12 13 13 11 8 8 7 8 9 8 7 7 6 7 5 3 3 3
13 12 9 10 12 11 12 11 10 11 10 9 7 6 5 6 7 12 16 13 12 9 7 5 5 11 12 11 9 11 13 10 7 7 7 6 5 5 5 6 6 5 4
12 12 10 10 11 11 13 14 11 11 10 9 9 8 6 5 6 10 14 17 16 8 7 10 10 10 10 8 9 11 9 7 6 6 5 4 3 3 4 5 7 6 7
11 10 10 9 10 11 12 12 13 13 12 10 10 9 7 6 5 5 5 9 13 9 7 8 9 7 6 5 6 6 5 5 5 4 3 3 4 5 5 5 5 5 6
10 9 9 9 10 12 12 13 15 14 15 13 11 11 11 9 10 14 11 9 9 9 8 4 3 2 3 3 3 3 4 4 5 3 4 5 5 5 4 4 4 5 5
8 8 8 8 8 9 12 11 15 14 18 19 17 14 12 13 17 18 17 17 17 17 9 5 4 4 4 4 5 3 3 4 4 4 4 4 4 4 4 4 4 5 4
9 8 7 8 8 9 11 13 11 8 13 17 18 19 16 17 20 20 18 17 17 16 6 5 5 5 4 5 6 5 4 4 4 5 4 4 4 3 3 3 4 4 4
9 9 8 8 8 8 11 12 13 13 11 8 9 16 18 20 21 20 18 13 8 6 4 5 5 4 4 6 7 6 5 5 4 4 4 3 4 3 2 3 3 3 3
9 7 6 7 8 7 9 11 12 13 12 10 5 5 11 15 18 19 18 8 10 7 5 5 5 5 5 7 9 8 7 6 6 5 4 4 3 3 2 2 3 5 4
9 12 9 6 7 7 8 11 12 12 12 11 11 9 9 8 7 9 7 6 8 7 7 6 6 6 6 7 8 8 7 6 6 5 5 4 4 3 4 4 4 4 3
8 8 10 7 7 7 9 11 12 13 12 12 11 13 18 15 14 14 11 8 8 8 7 7 6 6 7 8 8 9 9 7 6 6 6 6 5 4 4 5 5 5 4
7 7 6 6 7 7 9 11 12 13 14 13 10 11 16 11 11 11 10 9 8 7 7 6 6 6 8 10 10 9 8 8 7 7 7 7 6 5 5 4 4 4 4
7 8 7 6 7 8 10 11 13 13 13 12 12 12 12 8 10 10 11 9 8 7 6 6 6 6 7 7 8 9 9 9 9 10 9 8 7 6 5 5 5 5 5
8 8 7 7 7 7 10 12 13 14 14 13 12 12 13 11 10 11 10 8 8 7 7 6 7 9 12 9 8 10 11 12 13 11 13 11 9 7 7 6 6 7 6
8 8 8 8 7 8 11 12 13 14 14 13 12 12 12 11 9 9 8 8 9 8 9 8 7 9 12 12 10 11 15 18 18 17 13 11 11 11 9 8 7 6 5
7 8 7 6 7 9 11 12 13 14 14 13 12 11 11 11 10 9 8 8 8 8 8 8 10 11 11 12 15 16 17 19 21 21 16 10 12 11 10 8 9 7 7
Wind_Direction
199 191 177 190 234 297 318 324 325 338 352 3 3 2 350 330 309 270 221 173 146 124 116 123 112 108 103 108 116 111 104 108 108 60 28 16 19 12 0 7 20 28 23
203 193 190 192 203 254 287 305 320 338 347 354 359 358 350 350 355 29 85 97 108 110 109 110 112 106 88 86 88 83 84 92 107 93 46 23 21 10 9 16 17 31 34
197 193 194 197 203 227 252 275 305 327 338 345 357 0 0 16 44 67 91 98 102 104 105 108 110 103 88 80 80 80 83 88 92 97 68 21 12 3 2 13 27 24 37
193 193 198 204 205 213 229 251 281 307 321 333 3 19 22 34 65 88 96 99 97 92 90 90 88 91 91 86 82 83 91 89 84 84 66 26 5 337 15 13 12 11 21
192 196 205 206 203 203 211 227 254 286 304 347 33 51 44 46 92 107 105 104 98 90 79 72 72 80 81 82 87 85 88 90 82 78 64 37 16 11 1 349 11 354 359
196 201 203 198 197 197 197 201 211 247 285 40 85 78 59 63 107 111 110 103 100 95 86 74 68 65 75 75 77 78 84 94 92 83 70 54 15 2 356 9 17 28 2
203 200 194 193 196 197 188 183 191 206 210 162 130 106 84 88 113 111 108 107 100 96 91 83 79 70 73 75 65 60 55 60 83 122 96 68 27 350 19 23 22 50 10
210 199 194 190 195 192 181 182 188 189 191 177 156 134 107 107 120 115 109 103 96 91 93 96 90 71 70 81 71 56 42 31 35 73 127 138 121 140 101 70 354 22 337
245 210 198 191 190 187 186 185 183 180 187 181 162 146 121 111 123 123 116 109 101 89 85 88 94 85 78 81 76 66 49 27 40 61 80 79 67 64 72 58 40 46 13
302 255 214 193 189 190 190 182 173 173 182 172 163 157 142 133 131 133 127 124 115 106 85 77 87 96 87 83 80 75 63 36 43 52 48 39 38 39 48 64 89 84 54
321 295 242 205 194 190 184 176 170 170 170 172 166 163 155 152 143 145 145 140 140 132 122 111 102 105 97 89 85 80 86 83 63 60 51 37 29 26 23 30 57 111 103
325 315 273 225 205 195 181 180 175 172 173 175 168 164 166 166 159 158 161 159 153 144 148 151 144 123 108 97 84 87 85 78 68 59 51 35 25 13 5 22 36 53 77
319 322 302 248 216 196 186 184 179 178 180 181 176 176 177 178 184 177 169 169 164 150 159 162 156 135 106 85 77 88 86 83 77 68 53 25 351 349 16 31 29 34 38
303 310 311 278 230 207 193 187 186 187 187 185 183 181 175 170 174 169 156 156 157 144 143 156 151 130 99 88 76 77 90 110 110 99 71 24 21 35 35 34 39 33 41
286 299 306 289 246 214 199 193 191 193 191 187 188 183 179 184 192 176 160 157 158 154 137 116 119 124 113 93 91 95 92 95 93 83 66 46 37 42 28 21 40 51 55
273 290 299 296 266 225 203 197 202 193 189 186 183 181 190 186 173 176 172 166 161 153 138 148 162 170 168 156 150 143 120 113 115 106 81 67 59 55 36 22 43 60 59
253 270 287 295 276 235 202 187 184 189 187 185 183 183 181 172 171 177 177 172 166 155 144 160 172 184 186 165 160 157 156 150 138 122 103 87 82 73 59 35 33 50 53
247 261 275 293 286 241 203 187 181 177 174 178 191 192 180 170 170 170 161 144 156 169 166 170 181 183 175 164 163 162 157 148 140 139 131 117 107 100 74 50 44 61 65
246 251 261 288 288 250 203 183 177 175 174 165 145 161 177 166 160 161 155 157 169 180 183 182 181 172 168 168 168 168 163 161 158 156 159 155 144 127 105 79 76 81 90
246 250 255 280 286 250 201 181 174 170 166 165 168 158 147 142 155 170 182 170 172 179 183 187 186 175 168 172 171 171 170 166 160 161 172 178 175 154 137 124 118 115 116
245 246 254 272 273 242 202 182 172 167 167 170 172 170 167 173 176 180 185 182 180 182 184 186 185 181 176 175 175 176 178 180 174 172 176 182 180 165 153 147 144 139 142
238 235 237 251 265 241 201 180 169 166 167 166 164 165 172 171 173 179 187 192 189 183 179 176 181 184 181 181 180 178 182 187 184 178 179 183 181 171 161 157 153 148 151
235 234 240 249 257 227 194 176 168 165 165 163 161 162 173 177 175 182 188 192 190 188 183 178 182 192 192 186 180 178 184 192 191 182 179 180 179 176 170 169 167 161 169
234 232 240 252 246 213 184 173 168 166 165 163 162 167 176 183 181 184 186 187 191 195 190 187 193 200 199 196 192 191 193 192 183 181 178 179 179 177 173 172 173 175 180
233 233 243 245 227 196 175 167 164 164 166 168 169 171 177 181 181 182 184 188 191 195 198 196 196 200 200 198 195 201 204 195 187 184 182 180 179 178 176 175 175 176 180
235 242 241 223 199 177 164 160 159 160 163 169 172 172 175 181 185 184 182 185 191 197 200 201 202 199 198 200 203 201 198 195 193 189 186 184 183 184 182 181 180 180 175
Height
1480 1477 1475 1473 1470 1467 1464 1460 1456 1453 1450 1448 1446 1445 1444 1443 1443 1443 1443 1443 1444 1446 1447 1449 1451 1453 1455 1457 1459 1461 1462 1464 1466 1468 1468 1469 1468 1467 1466 1464 1462 1460 1459
1476 1474 1472 1470 1468 1465 1463 1460 1457 1454 1452 1449 1447 1446 1444 1443 1442 1442 1442 1442 1443 1445 1446 1449 1451 1454 1456 1458 1460 1461 1463 1464 1466 1467 1468 1469 1468 1467 1466 1464 1462 1460 1458
1472 1470 1469 1467 1465 1463 1462 1460 1457 1455 1453 1450 1448 1446 1445 1443 1443 1442 1443 1443 1444 1446 1448 1451 1453 1455 1457 1459 1460 1462 1463 1465 1466 1467 1469 1469 1469 1468 1467 1465 1463 1460 1458
1468 1466 1465 1464 1462 1461 1460 1459 1457 1456 1454 1452 1449 1447 1446 1444 1444 1444 1445 1446 1447 1449 1451 1454 1456 1457 1459 1460 1462 1463 1465 1466 1468 1469 1469 1469 1469 1468 1467 1465 1463 1461 1459
1463 1462 1461 1460 1459 1458 1457 1457 1456 1456 1454 1453 1451 1449 1447 1446 1446 1447 1448 1449 1450 1453 1455 1457 1458 1460 1461 1463 1464 1466 1467 1468 1469 1469 1470 1470 1469 1468 1467 1465 1464 1463 1461
1457 1457 1457 1456 1456 1455 1454 1455 1455 1455 1455 1454 1452 1451 1450 1450 1449 1450 1451 1453 1455 1456 1458 1460 1462 1463 1464 1465 1467 1468 1469 1469 1470 1470 1471 1470 1470 1469 1468 1467 1465 1463 1461
1452 1451 1451 1452 1452 1451 1451 1452 1453 1454 1454 1454 1454 1454 1453 1453 1453 1454 1456 1457 1459 1460 1462 1463 1464 1466 1467 1468 1469 1470 1470 1471 1471 1471 1471 1471 1471 1470 1469 1467 1466 1464 1463
1447 1446 1446 1446 1447 1447 1447 1448 1450 1452 1453 1454 1455 1455 1455 1456 1457 1458 1459 1461 1462 1464 1465 1466 1467 1468 1469 1469 1470 1470 1470 1471 1471 1471 1471 1471 1471 1471 1470 1468 1467 1465 1464
1442 1440 1440 1441 1442 1443 1443 1444 1447 1450 1452 1453 1454 1455 1456 1458 1459 1460 1461 1463 1464 1465 1467 1468 1469 1469 1469 1470 1470 1470 1471 1471 1472 1472 1472 1472 1472 1471 1470 1469 1467 1465 1464
1435 1434 1434 1434 1435 1437 1438 1440 1443 1446 1450 1452 1453 1455 1457 1458 1460 1461 1462 1464 1465 1466 1468 1469 1470 1469 1470 1470 1470 1471 1471 1472 1472 1472 1473 1473 1473 1472 1471 1469 1468 1466 1465
1428 1426 1426 1428 1429 1431 1433 1435 1438 1443 1447 1450 1452 1453 1456 1458 1459 1461 1463 1464 1465 1467 1468 1469 1470 1471 1471 1471 1472 1472 1473 1474 1474 1474 1474 1474 1473 1472 1471 1470 1468 1467 1466
1421 1418 1417 1419 1422 1424 1427 1430 1433 1438 1443 1446 1449 1451 1454 1456 1458 1460 1462 1464 1465 1466 1468 1469 1470 1471 1472 1473 1473 1474 1474 1475 1475 1474 1474 1474 1473 1473 1472 1471 1469 1468 1467
1416 1411 1409 1410 1413 1416 1419 1423 1426 1431 1437 1441 1444 1447 1450 1453 1456 1458 1460 1462 1464 1466 1468 1469 1470 1472 1473 1474 1475 1475 1475 1475 1475 1474 1474 1474 1474 1473 1473 1472 1470 1469 1468
1410 1406 1402 1401 1403 1407 1411 1415 1419 1423 1429 1434 1438 1442 1445 1449 1452 1455 1457 1460 1462 1465 1467 1469 1470 1472 1474 1475 1475 1476 1476 1475 1475 1475 1475 1475 1474 1474 1473 1472 1471 1470 1468
1403 1399 1395 1392 1393 1397 1401 1406 1410 1415 1420 1426 1431 1436 1440 1444 1447 1451 1454 1457 1460 1462 1465 1467 1469 1471 1473 1474 1475 1476 1476 1476 1475 1475 1475 1475 1474 1474 1473 1473 1471 1470 1469
1395 1391 1387 1384 1383 1387 1392 1397 1403 1408 1414 1420 1426 1431 1436 1440 1445 1448 1451 1455 1458 1460 1463 1465 1467 1469 1471 1473 1474 1475 1476 1476 1476 1476 1475 1475 1475 1475 1475 1474 1473 1471 1470
1387 1384 1380 1376 1375 1378 1383 1388 1394 1401 1407 1414 1420 1426 1432 1436 1441 1444 1448 1452 1455 1458 1460 1462 1465 1467 1469 1471 1472 1473 1474 1475 1476 1476 1476 1476 1476 1476 1475 1475 1474 1473 1472
1379 1376 1373 1369 1367 1369 1374 1380 1386 1392 1398 1406 1414 1421 1427 1432 1437 1441 1445 1448 1451 1455 1457 1460 1462 1465 1466 1468 1470 1472 1473 1474 1475 1476 1476 1476 1476 1476 1476 1475 1474 1474 1473
1370 1368 1366 1362 1360 1361 1367 1373 1379 1386 1392 1399 1407 1415 1421 1427 1432 1436 1440 1443 1447 1450 1453 1457 1459 1462 1464 1466 1468 1470 1471 1473 1474 1475 1475 1475 1476 1476 1475 1475 1474 1474 1473
1362 1361 1359 1357 1354 1356 1361 1367 1373 1379 1386 1394 1401 1408 1415 1421 1426 1430 1435 1439 1443 1446 1449 1452 1456 1459 1461 1464 1466 1468 1470 1471 1472 1473 1474 1474 1475 1475 1474 1474 1474 1473 1473
1354 1353 1353 1351 1349 1351 1355 1362 1368 1374 1381 1389 1396 1403 1409 1415 1420 1425 1430 1435 1438 1442 1445 1448 1452 1455 1458 1461 1463 1466 1467 1469 1470 1471 1472 1473 1473 1473 1473 1473 1473 1472 1472
1346 1346 1346 1346 1344 1346 1351 1357 1364 1371 1378 1385 1392 1399 1405 1411 1416 1421 1426 1431 1435 1438 1441 1445 1449 1452 1455 1458 1461 1463 1465 1466 1468 1469 1470 1470 1471 1471 1471 1471 1471 1470 1470
1339 1340 1339 1339 1339 1341 1347 1353 1360 1368 1375 1382 1388 1394 1400 1406 1412 1417 1422 1427 1431 1434 1438 1441 1445 1449 1452 1455 1458 1460 1461 1463 1464 1466 1466 1467 1468 1468 1468 1468 1468 1467 1467
1332 1332 1333 1333 1334 1337 1343 1350 1358 1365 1373 1380 1386 1391 1397 1402 1408 1413 1418 1423 1426 1430 1434 1438 1442 1445 1448 1451 1454 1456 1458 1460 1461 1462 1463 1464 1464 1464 1464 1464 1463 1463 1463
1325 1325 1326 1327 1329 1334 1340 1348 1355 1363 1370 1377 1383 1389 1394 1399 1403 1408 1413 1418 1422 1426 1430 1434 1438 1442 1445 1448 1450 1452 1454 1456 1457 1458 1459 1459 1460 1460 1459 1459 1459 1459 1459
1318 1319 1319 1321 1326 1332 1339 1347 1354 1361 1368 1375 1381 1386 1391 1395 1400 1404 1409 1414 1418 1422 1426 1431 1434 1438 1441 1444 1446 1448 1449 1451 1452 1453 1454 1454 1454 1454 1454 1454 1454 1454 1454